Temperature
17 17 17 17 17 17 17 17 17 17 17 17 17 17 17 17 17 17 17 17 17 17 17 17 17 18 18 18 18 18 18 18 18 18 18 18 18 18 18 18 18 18 18
17 17 17 17 17 17 17 17 17 17 17 17 17 17 17 17 17 17 17 17 17 17 17 17 17 18 18 18 18 18 18 18 18 18 18 18 18 18 18 18 18 17 18
17 17 17 17 17 17 17 17 17 17 17 17 17 17 17 17 17 17 17 17 17 17 17 17 17 17 17 17 18 18 18 18 18 18 17 17 17 17 18 18 18 18 17
17 17 16 17 17 17 17 17 17 17 17 17 17 17 17 17 17 17 17 17 17 17 17 17 17 17 17 17 17 18 18 18 18 17 17 17 17 17 17 17 17 17 17
16 16 17 17 17 17 17 17 17 17 16 17 17 17 17 17 17 17 17 17 17 17 17 17 17 17 17 17 17 17 17 17 17 17 16 17 17 17 17 17 17 17 17
16 16 16 17 17 17 17 17 17 17 16 16 16 17 17 17 17 17 17 16 17 17 17 17 17 17 17 17 17 17 17 17 17 16 16 16 17 17 17 17 17 17 17
16 16 16 17 17 17 17 17 17 16 16 16 16 16 16 16 16 16 16 16 16 16 16 16 17 17 17 17 17 17 17 17 16 16 16 16 16 17 17 17 17 17 17
16 16 16 17 17 17 17 16 16 16 16 16 16 16 16 16 16 16 16 16 16 16 16 16 16 16 17 17 17 16 17 16 16 16 16 16 16 16 17 17 16 16 16
16 16 16 16 16 16 16 16 16 16 16 16 16 16 16 16 16 16 16 16 16 16 16 16 16 16 16 16 16 16 16 16 16 16 16 16 16 16 16 16 16 16 16
16 16 16 16 16 16 16 16 16 16 16 16 16 16 16 16 16 16 16 16 16 16 16 16 16 16 16 16 16 16 16 16 16 16 15 16 16 16 16 16 16 16 16
16 16 16 16 16 16 16 16 16 16 16 16 16 16 16 15 15 16 15 16 16 16 16 16 16 16 16 16 16 16 16 16 16 15 15 16 16 16 16 16 16 16 16
16 16 16 16 16 16 16 16 16 16 16 15 15 15 15 15 15 15 16 16 16 16 16 16 16 16 16 15 16 15 15 15 15 15 15 16 16 16 16 16 16 16 16
16 16 16 16 16 16 16 16 16 16 15 15 15 15 15 15 15 15 15 15 15 15 15 15 15 15 15 15 15 15 15 15 15 15 15 15 15 15 15 15 15 15 15
16 16 16 16 16 16 16 16 16 16 15 15 15 15 15 15 15 15 15 15 15 15 15 15 15 15 15 15 15 15 15 15 15 15 15 15 15 15 15 15 15 15 15
16 16 16 16 16 16 16 16 15 15 15 15 15 15 15 15 15 15 15 15 15 15 15 15 15 15 15 15 15 15 15 15 15 14 15 15 15 15 15 15 15 15 15
16 16 16 16 16 16 16 16 15 15 15 15 15 15 15 15 15 15 15 15 15 15 15 15 15 15 15 15 15 15 15 15 14 14 14 15 15 15 15 15 15 15 15
16 16 16 16 16 16 15 15 15 15 15 15 15 15 15 15 15 15 15 15 14 14 15 15 15 15 15 14 14 14 15 14 14 14 14 14 14 15 15 15 14 15 15
16 16 16 16 16 15 15 15 15 15 15 15 15 15 15 14 14 14 14 14 14 14 14 14 14 14 14 14 14 14 14 14 14 14 14 14 14 14 14 14 14 14 14
16 16 16 16 15 15 15 15 15 15 15 15 14 14 14 14 14 14 14 14 14 14 14 14 14 14 14 14 14 14 14 14 14 14 14 14 14 14 14 14 14 14 14
16 16 16 16 15 15 15 15 15 15 14 14 14 14 14 14 14 14 14 14 14 14 14 14 14 14 14 14 14 14 14 14 14 14 14 14 14 14 14 14 14 14 14
16 16 16 15 15 15 15 15 15 14 14 14 14 14 14 14 14 14 14 14 14 14 14 13 14 14 14 14 14 14 14 14 14 14 14 14 14 14 14 14 13 13 13
16 16 15 15 15 15 15 15 14 14 14 14 14 14 14 14 14 14 14 14 14 14 14 14 13 13 13 13 14 14 14 14 14 14 13 13 13 13 13 13 13 13 13
16 16 15 15 15 15 15 14 14 14 14 14 14 14 14 14 14 14 14 14 14 14 13 13 13 13 13 13 13 13 14 15 14 13 13 13 13 13 13 13 13 13 13
16 15 15 15 15 15 14 14 14 14 14 14 14 13 13 13 13 13 13 13 13 13 13 13 13 13 13 13 13 13 13 13 14 14 13 13 13 13 13 13 13 13 13
16 15 15 15 15 15 14 14 14 14 14 14 13 13 13 13 13 13 13 13 13 13 13 13 13 13 13 13 13 13 13 13 13 13 13 13 13 13 13 13 12 13 13
15 15 15 15 15 15 14 14 14 14 14 13 13 13 13 13 13 13 13 13 13 13 13 13 13 13 13 13 13 13 12 12 12 13 13 13 13 12 12 12 12 12 12
Wind_Speed
3 4 6 5 6 6 7 7 7 8 8 8 8 8 8 8 8 8 8 8 8 9 9 9 10 10 10 10 9 9 10 9 9 9 8 7 7 7 6 5 3 5 7
4 5 7 6 7 7 7 7 7 8 8 8 8 8 8 8 8 8 9 9 9 10 9 10 10 10 10 10 9 9 9 9 9 8 7 7 8 7 6 6 4 5 6
5 5 6 7 7 7 7 7 7 7 7 7 8 8 8 8 8 9 9 9 10 10 9 9 9 10 10 10 10 9 8 8 7 6 4 6 8 7 6 6 5 5 5
5 5 6 7 7 7 7 7 7 7 7 7 7 8 8 8 8 9 9 9 10 10 9 9 9 10 10 10 10 9 8 8 6 3 4 6 7 8 6 5 5 5 5
6 6 8 7 6 6 6 7 7 7 8 8 8 8 8 8 8 9 10 10 10 10 10 9 9 9 9 9 9 9 9 8 6 4 6 6 7 8 6 6 5 5 5
6 6 8 7 7 6 7 7 8 7 8 8 8 8 9 9 9 10 10 11 11 11 10 10 9 9 9 8 8 9 9 7 4 6 6 6 7 8 7 6 5 4 4
6 6 8 7 7 7 8 8 9 9 9 8 8 9 9 9 10 10 10 11 11 11 11 10 10 10 10 9 9 8 8 6 5 6 5 6 8 8 7 6 5 5 4
6 6 7 8 7 7 8 9 10 10 10 9 8 8 9 10 10 10 10 10 11 11 11 11 10 10 9 9 8 8 7 4 5 6 6 7 8 7 7 6 6 6 6
5 5 5 6 7 7 8 8 9 9 9 8 7 8 9 10 10 10 10 10 10 11 11 11 11 10 10 9 8 8 7 4 5 5 6 6 7 7 6 6 6 6 7
5 5 5 6 6 6 7 8 8 9 9 8 7 8 8 9 10 9 9 10 10 10 10 10 10 10 9 9 8 7 5 2 6 6 6 8 8 7 6 7 7 7 8
5 4 4 5 6 6 7 7 7 7 7 5 7 8 6 7 8 8 11 10 10 9 9 9 9 9 8 9 7 5 3 5 7 7 8 9 8 8 7 7 8 8 8
5 5 4 5 5 5 5 5 5 6 6 6 7 7 6 6 6 7 9 8 8 8 8 8 7 6 3 6 6 3 5 6 6 6 8 9 9 8 8 7 7 8 8
5 5 4 4 5 5 4 4 4 4 5 6 7 6 5 5 5 5 4 5 5 4 5 5 4 5 5 5 5 5 6 6 5 6 8 9 8 8 8 8 8 8 9
5 4 4 4 4 4 4 4 3 3 4 4 5 6 4 4 3 4 4 4 3 3 3 4 3 5 5 5 5 6 6 5 5 6 7 8 8 8 8 8 9 9 9
5 4 4 3 3 3 4 3 3 3 4 5 4 4 4 3 3 4 4 4 4 3 3 3 3 4 4 4 5 5 5 6 6 5 6 9 8 8 8 8 8 8 9
5 5 4 3 3 3 3 3 3 3 3 3 4 4 4 3 3 3 3 4 4 3 3 3 3 3 3 4 4 5 4 4 5 5 5 6 8 7 7 7 8 7 7
5 5 5 4 3 3 3 3 3 3 3 3 3 3 4 3 3 3 3 3 3 3 3 3 3 2 2 3 3 3 3 4 3 4 4 4 5 6 7 7 7 7 7
5 5 5 4 3 3 3 3 3 3 3 3 3 3 4 3 3 3 2 2 3 2 2 2 2 2 2 2 2 2 2 2 3 3 3 3 3 4 6 7 7 7 7
5 5 5 4 4 3 3 3 3 3 3 3 3 3 3 4 3 2 2 2 2 2 2 2 2 2 2 2 2 1 2 2 2 2 2 3 3 3 3 5 5 6 6
5 5 5 5 4 4 3 3 3 3 2 2 2 3 3 3 3 2 1 2 2 1 1 1 2 1 1 1 1 1 1 1 1 2 2 2 3 3 3 3 3 4 5
6 5 5 4 4 3 3 2 2 2 2 2 2 2 2 2 2 2 2 2 2 1 1 1 1 1 1 1 0 0 0 1 1 1 1 1 2 3 3 3 2 2 2
7 6 5 4 4 3 2 2 2 2 1 1 1 1 2 2 2 2 2 1 1 1 1 1 0 1 1 1 1 2 1 1 1 1 0 1 1 2 2 3 3 2 2
7 6 5 4 4 4 3 2 2 2 2 2 1 1 1 1 1 1 1 1 1 1 1 1 1 2 1 1 2 2 2 1 0 1 0 1 1 1 2 2 3 3 3
7 6 5 5 4 4 4 3 3 2 2 1 1 1 1 0 0 0 1 1 1 1 1 2 2 2 2 2 1 2 3 3 2 1 1 0 0 1 1 1 2 3 3
7 6 6 5 5 4 4 4 3 2 2 1 1 1 1 0 0 0 1 1 1 1 2 2 2 2 2 2 2 1 2 2 4 3 2 1 1 1 1 1 1 2 2
7 6 6 6 5 5 5 4 4 3 2 2 2 1 1 0 0 1 1 1 1 1 2 2 2 2 2 3 3 2 2 2 3 3 3 3 2 1 1 0 1 1 1
Wind_Direction
97 80 84 78 77 76 76 74 74 77 76 74 73 75 78 80 78 80 80 78 74 73 74 74 74 73 75 79 87 95 97 101 103 104 104 103 100 98 99 104 121 112 100
97 88 91 80 81 81 81 79 76 77 76 75 72 73 77 81 80 80 81 79 74 73 73 73 73 74 77 76 82 90 93 97 98 101 111 114 103 97 94 90 74 81 96
95 92 97 82 81 79 77 78 75 76 76 75 73 72 75 79 82 80 79 79 77 74 73 72 74 75 76 75 75 83 90 93 96 104 127 112 106 96 93 90 79 79 85
90 86 79 81 78 74 73 75 72 71 71 74 76 74 74 77 79 78 77 79 77 76 75 75 74 73 73 75 76 79 88 89 89 105 100 88 92 90 87 84 79 79 81
89 84 82 78 72 70 71 72 69 68 68 70 74 76 74 75 76 76 76 77 75 74 74 76 76 73 74 75 77 78 81 82 81 76 74 74 77 77 77 76 73 73 75
90 83 82 73 72 74 73 70 65 71 76 74 70 74 77 77 76 77 77 74 72 72 74 76 74 72 74 75 77 76 76 77 81 72 70 73 76 73 70 69 66 66 65
91 84 84 73 74 73 74 69 67 75 79 77 72 73 77 77 77 81 81 78 73 69 69 70 71 71 72 74 77 76 75 70 73 74 71 71 70 70 68 63 61 64 67
93 88 91 88 81 74 71 68 68 73 75 75 76 78 80 79 80 84 83 81 77 73 69 66 68 71 72 75 77 75 69 52 79 74 69 70 66 66 67 65 60 57 62
94 89 86 90 93 89 73 65 66 68 69 70 81 87 88 85 83 82 82 81 81 78 72 68 67 69 70 73 75 78 75 51 70 71 70 66 62 65 67 70 62 55 54
96 89 81 80 80 85 85 74 67 65 61 62 82 95 100 104 99 90 88 78 78 79 76 72 69 69 70 71 76 78 78 71 67 70 63 63 62 62 66 68 64 57 54
87 82 77 77 74 73 74 81 83 76 62 72 101 105 111 98 96 97 76 75 73 75 76 76 75 76 80 84 81 79 78 66 65 65 61 52 55 59 65 68 67 59 57
93 79 75 74 73 76 72 75 75 74 68 69 87 92 88 84 82 84 94 86 80 82 88 79 81 92 83 84 94 102 71 69 64 66 65 54 54 59 65 67 68 62 61
107 94 80 78 76 76 78 70 74 73 66 62 66 76 79 81 88 86 90 99 96 98 88 93 96 71 69 69 65 66 60 59 61 61 64 57 54 54 63 67 66 63 61
109 103 95 84 84 79 80 75 74 74 70 67 60 65 74 74 70 74 72 69 70 71 71 70 68 73 66 67 70 69 68 62 61 63 68 61 59 61 64 69 66 59 57
122 117 108 97 92 89 88 82 79 71 67 72 61 55 67 73 74 73 77 68 62 61 70 70 69 67 61 58 63 64 62 64 62 63 70 67 60 60 62 63 63 59 56
132 128 118 113 98 93 97 98 85 79 79 73 66 50 59 68 72 69 67 62 53 51 52 62 69 66 59 56 57 57 54 56 59 61 67 78 74 63 59 57 56 55 53
137 133 124 118 108 102 97 88 88 93 89 76 67 50 53 58 66 68 55 55 48 45 54 54 64 55 63 67 63 56 55 44 50 56 62 62 76 83 68 57 51 46 48
142 135 127 127 125 113 101 94 94 90 82 79 68 55 51 56 62 60 53 46 44 41 41 48 42 49 62 62 49 39 41 42 36 38 50 63 62 64 79 68 51 44 47
149 141 135 133 130 124 116 109 93 93 83 76 69 61 50 54 53 65 50 35 44 39 40 39 40 31 48 55 50 45 33 29 21 19 42 52 59 61 66 82 72 57 50
155 150 144 135 138 134 132 125 107 100 91 81 72 65 54 41 42 51 53 40 36 36 38 40 51 45 40 32 23 32 28 43 27 15 13 46 54 53 49 47 63 74 64
163 160 151 150 142 140 141 144 134 128 109 103 90 85 78 62 41 45 35 42 30 30 23 29 61 68 48 13 12 15 79 63 50 36 355 9 59 57 53 46 43 39 79
169 165 163 162 154 153 151 151 155 148 141 114 107 91 72 61 52 43 39 41 40 26 8 3 355 304 343 316 300 287 252 181 84 36 20 3 26 50 44 38 38 36 36
178 172 171 171 164 164 167 164 155 146 153 143 143 126 76 58 52 49 43 38 27 336 299 286 264 264 281 297 316 306 297 303 320 141 57 36 41 29 32 28 19 18 33
183 178 178 176 173 172 177 183 182 188 184 181 175 147 136 81 50 11 360 352 335 318 301 278 268 267 268 270 285 312 315 320 287 259 203 177 20 352 357 6 7 11 16
182 180 180 176 174 176 184 185 203 201 191 179 175 168 179 153 242 271 284 287 295 290 293 290 278 268 259 269 271 278 295 290 281 277 271 258 236 268 307 342 357 11 20
176 173 177 179 177 178 184 186 197 194 191 179 177 173 188 175 261 336 314 287 283 286 287 284 268 262 260 261 261 260 267 272 278 275 269 264 262 263 255 252 311 356 8
Height
1524 1523 1522 1521 1521 1521 1520 1520 1519 1519 1519 1518 1518 1518 1517 1517 1517 1516 1516 1516 1515 1515 1514 1514 1513 1512 1512 1511 1510 1510 1512 1513 1514 1516 1517 1518 1518 1519 1519 1519 1519 1520 1519
1524 1524 1523 1522 1522 1521 1521 1521 1520 1520 1519 1519 1519 1519 1519 1519 1518 1518 1518 1517 1517 1516 1516 1515 1515 1514 1514 1513 1513 1514 1514 1515 1516 1517 1518 1519 1519 1520 1520 1520 1520 1520 1520
1525 1524 1524 1523 1523 1522 1522 1521 1521 1521 1520 1520 1520 1520 1520 1520 1520 1519 1519 1519 1518 1518 1517 1517 1517 1516 1516 1516 1516 1516 1516 1517 1518 1519 1519 1521 1520 1520 1521 1521 1521 1521 1521
1525 1526 1525 1524 1524 1523 1523 1522 1521 1521 1521 1521 1521 1521 1521 1521 1521 1521 1521 1520 1520 1519 1519 1518 1518 1518 1518 1518 1518 1517 1518 1518 1519 1520 1522 1522 1522 1521 1521 1521 1521 1521 1521
1526 1527 1526 1525 1525 1524 1523 1522 1521 1521 1521 1521 1522 1522 1522 1522 1522 1522 1522 1522 1521 1521 1520 1520 1520 1520 1520 1519 1519 1519 1519 1519 1520 1521 1522 1522 1522 1522 1522 1522 1522 1522 1521
1527 1528 1527 1526 1526 1525 1524 1522 1520 1519 1520 1521 1522 1523 1523 1523 1523 1523 1523 1523 1523 1522 1522 1522 1521 1521 1521 1521 1521 1521 1521 1521 1522 1523 1523 1523 1523 1523 1523 1523 1522 1522 1522
1528 1529 1528 1527 1527 1526 1525 1523 1521 1519 1520 1522 1523 1524 1524 1525 1525 1525 1525 1524 1524 1524 1524 1523 1523 1523 1523 1523 1522 1523 1523 1523 1524 1524 1524 1524 1524 1524 1524 1523 1523 1523 1522
1529 1530 1529 1528 1528 1527 1527 1525 1523 1522 1522 1523 1524 1525 1526 1526 1526 1526 1526 1526 1526 1526 1525 1525 1524 1524 1524 1524 1524 1524 1524 1525 1525 1525 1525 1525 1525 1524 1524 1524 1523 1523 1523
1531 1531 1531 1531 1530 1529 1528 1527 1526 1525 1525 1524 1525 1526 1527 1527 1528 1528 1528 1528 1527 1527 1527 1526 1526 1526 1526 1525 1525 1525 1526 1526 1527 1527 1527 1526 1526 1525 1525 1524 1524 1524 1523
1532 1532 1532 1532 1532 1531 1530 1529 1528 1527 1525 1524 1524 1526 1528 1529 1529 1530 1530 1529 1529 1529 1529 1528 1528 1527 1527 1527 1527 1527 1527 1527 1528 1528 1528 1527 1526 1526 1525 1525 1525 1524 1523
1533 1533 1533 1533 1533 1533 1532 1531 1530 1529 1526 1523 1523 1526 1529 1531 1532 1532 1532 1531 1531 1531 1530 1530 1530 1529 1529 1529 1528 1529 1529 1529 1529 1529 1528 1528 1527 1527 1526 1526 1525 1525 1524
1534 1534 1534 1534 1534 1534 1533 1533 1533 1532 1530 1528 1528 1529 1531 1533 1533 1533 1533 1533 1532 1532 1532 1531 1531 1531 1531 1531 1530 1530 1531 1531 1530 1530 1529 1529 1528 1528 1527 1526 1526 1525 1525
1535 1535 1535 1535 1535 1535 1535 1534 1534 1534 1533 1532 1532 1533 1534 1534 1535 1535 1535 1535 1535 1534 1534 1533 1533 1533 1533 1532 1532 1532 1532 1532 1532 1531 1530 1530 1529 1529 1528 1527 1527 1526 1525
1535 1536 1536 1536 1536 1536 1536 1536 1536 1536 1535 1535 1534 1535 1536 1536 1536 1536 1536 1536 1536 1536 1535 1535 1534 1534 1534 1534 1534 1534 1533 1533 1533 1532 1531 1531 1530 1529 1529 1528 1527 1527 1526
1535 1536 1537 1537 1537 1537 1537 1537 1537 1537 1537 1537 1536 1537 1537 1537 1537 1537 1537 1537 1537 1536 1536 1536 1536 1536 1535 1535 1535 1535 1535 1534 1534 1533 1533 1532 1531 1530 1530 1529 1528 1528 1527
1536 1536 1537 1537 1538 1538 1538 1538 1538 1538 1537 1538 1538 1538 1538 1538 1538 1538 1538 1538 1538 1537 1537 1537 1537 1536 1536 1536 1536 1535 1535 1536 1535 1535 1534 1533 1532 1531 1530 1529 1529 1529 1528
1536 1536 1537 1537 1538 1538 1538 1538 1538 1538 1539 1539 1538 1539 1539 1539 1539 1539 1539 1539 1538 1538 1538 1538 1537 1537 1536 1536 1536 1536 1536 1536 1536 1536 1535 1534 1533 1532 1531 1530 1530 1529 1528
1536 1536 1537 1537 1538 1538 1538 1538 1539 1539 1539 1539 1539 1539 1540 1540 1540 1539 1539 1539 1539 1538 1538 1538 1538 1537 1537 1537 1537 1537 1537 1536 1536 1536 1536 1535 1534 1533 1532 1531 1530 1530 1529
1535 1536 1537 1537 1538 1538 1538 1539 1539 1539 1539 1539 1539 1539 1540 1540 1540 1540 1539 1539 1539 1538 1538 1538 1538 1538 1537 1537 1537 1537 1536 1536 1536 1536 1536 1536 1535 1533 1533 1532 1531 1530 1529
1535 1536 1536 1537 1537 1538 1538 1539 1539 1539 1540 1540 1539 1539 1539 1539 1540 1540 1539 1539 1539 1539 1538 1538 1538 1537 1537 1537 1537 1537 1536 1536 1536 1536 1536 1535 1535 1534 1533 1532 1532 1531 1529
1534 1535 1536 1536 1537 1537 1538 1538 1539 1539 1539 1540 1539 1540 1539 1539 1540 1539 1539 1539 1539 1539 1538 1538 1538 1538 1537 1537 1537 1537 1536 1536 1536 1535 1535 1535 1535 1534 1533 1532 1532 1531 1530
1533 1534 1535 1536 1536 1537 1537 1538 1538 1539 1539 1539 1539 1539 1539 1539 1539 1539 1539 1539 1538 1538 1538 1538 1537 1537 1537 1537 1537 1537 1536 1537 1534 1535 1534 1534 1534 1534 1533 1532 1531 1531 1530
1531 1532 1534 1535 1535 1536 1536 1537 1538 1538 1538 1539 1539 1539 1539 1539 1539 1538 1539 1538 1538 1538 1538 1537 1537 1536 1537 1536 1536 1537 1536 1535 1535 1534 1534 1534 1533 1533 1532 1532 1531 1530 1530
1529 1531 1532 1533 1534 1535 1535 1536 1537 1537 1538 1538 1538 1538 1538 1538 1538 1538 1538 1537 1537 1537 1537 1536 1536 1536 1536 1536 1535 1535 1536 1535 1535 1534 1533 1533 1532 1532 1531 1531 1530 1529 1529
1528 1529 1531 1532 1533 1534 1534 1535 1536 1536 1537 1537 1537 1537 1537 1537 1537 1537 1537 1536 1536 1536 1535 1535 1535 1535 1534 1535 1534 1534 1533 1533 1533 1533 1532 1532 1531 1531 1530 1529 1529 1528 1527
1526 1527 1529 1530 1531 1532 1533 1534 1534 1535 1535 1536 1536 1536 1536 1536 1536 1536 1535 1535 1535 1534 1534 1533 1533 1533 1533 1533 1533 1532 1532 1532 1532 1531 1531 1530 1529 1529 1528 1528 1527 1526 1526